{"data":{"norad_id":61902,"intl_designator":"2024-205J","name":"2024-205J","alt_names":[],"object_type":"PAYLOAD","status":"ACTIVE","operator":null,"country":"PRC","launch_date":"2024-11-11","launch_site_code":"JSC","launch_vehicle":null,"mission":null,"orbit_class":"UNKNOWN","rcs_meters":null,"size_class":null,"mass_kg":null,"dimensions":null,"purposes":[],"wikipedia_slug":null,"has_3d_model":false,"image_url":null,"decayed_at":null,"tle_current":{"epoch":"2026-05-25T04:27:56.478240Z","epoch_age_seconds":55499,"freshness":"FRESH","line1":"1 61902U 24205J   26145.18607035  .00005950  00000+0  35186-3 0  9993","line2":"2 61902  97.4145 216.2403 0011881 243.9902 116.0106 15.11768082 84710","mean_motion":15.11768082,"eccentricity":0.0011881,"inclination_deg":97.4145,"raan_deg":216.2403,"arg_perigee_deg":243.9902,"mean_anomaly_deg":116.0106,"bstar":0.00035186,"rev_number":8471,"period_min":95.252705566779,"perigee_km":522.59934510897,"apogee_km":539.01637989124,"semimajor_km":6908.9448625001,"source":"CELESTRAK","updated_at":"2026-05-25T13:38:02.604187Z"}}}